State University, AR

3:45 AM CDT on August 25, 2016 (GMT -0500)
Jonesboro Municipal

Weather History for KJBR - March, 2013

Change the Weather History Date:

Sunday, March 31, 2013

  Actual Average Record
Temperature  
Mean Temperature 56 °F 55 °F  
Max Temperature 63 °F 65 °F 87 °F (1904)
Min Temperature 48 °F 45 °F 23 °F (1923)
Degree Days  
Heating Degree Days 9 11  
Month to date heating degree days 615 465  
Since 1 July heating degree days 3243 3420  
Cooling Degree Days 0 1  
Month to date cooling degree days 0 6  
Year to date cooling degree days 0 6  
Growing Degree Days 5 (Base 50)    
Moisture  
Dew Point 52 °F    
Average Humidity 78    
Maximum Humidity 100    
Minimum Humidity 56    
Precipitation  
Precipitation 0.31 in 0.16 in 2.60 in (1933)
Month to date precipitation 2.09 4.50  
Year to date precipitation 11.88 11.65  
Snow  
Snow 0.00 in 0.00 in T in (1924)
Month to date snowfall 4.0 0.7  
Since 1 July snowfall 11.0 4.8  
Snow Depth 0.00 in    
Sea Level Pressure  
Sea Level Pressure 29.92 in    
Wind  
Wind Speed 4 mph (NNW)    
Max Wind Speed 14 mph    
Max Gust Speed 17 mph    
Visibility 5 miles    
Events Fog , Rain , Thunderstorm    
T = Trace of Precipitation, MM = Missing Value Source: NWS Daily Summary

Daily Weather History Graph

Daily Weather History Graph

Search for Another Location

Airport or City:

Trip Planner

Search our weather history database for the weather conditions in past years. The results will help you decide how hot, cold, wet, or windy it might be!

Date:

Astronomy

Mar. 31, 2013 Rise Set
Actual Time 6:50 AM CDT 7:23 PM CDT
Civil Twilight 6:24 AM CDT 7:49 PM CDT
Nautical Twilight 5:54 AM CDT 8:19 PM CDT
Astronomical Twilight 5:23 AM CDT 8:50 PM CDT
Moon No Moon Rise 9:46 AM CDT (3/31)
Length of Visible Light 13h 25m
Length of Day
12h 33m
Waning Gibbous, 77% of the Moon is Illuminated
Mar 31
Waning Gibbous
Apr 2
Last Quarter
Apr 10
New
Apr 18
First Quarter
Apr 25
Full

Hourly Weather History & Observations

Time (CDT) Temp. Dew Point Humidity Pressure Visibility Wind Dir Wind Speed Gust Speed Precip Events Conditions
12:35 AM 55.4 °F 53.6 °F 94% 29.92 in 7.0 mi SSW 6.9 mph - N/A   Scattered Clouds
12:53 AM 55.0 °F 53.1 °F 93% 29.90 in 7.0 mi East 4.6 mph - N/A   Clear
1:24 AM 53.6 °F 53.6 °F 100% 29.91 in 5.0 mi SSW 4.6 mph - N/A   Mostly Cloudy
1:32 AM 53.6 °F 53.6 °F 100% 29.91 in 5.0 mi Calm Calm - N/A   Mostly Cloudy
1:53 AM 55.9 °F 54.0 °F 93% 29.92 in 7.0 mi WSW 6.9 mph - N/A   Overcast
2:53 AM 55.9 °F 54.0 °F 93% 29.88 in 4.0 mi West 3.5 mph - N/A   Overcast
3:53 AM 55.0 °F 53.1 °F 93% 29.87 in 5.0 mi Calm Calm - N/A   Overcast
4:32 AM 55.4 °F 53.6 °F 94% 29.87 in 3.0 mi Calm Calm - N/A   Overcast
4:46 AM 55.4 °F 53.6 °F 94% 29.87 in 2.0 mi Calm Calm - N/A   Overcast
4:53 AM 55.0 °F 54.0 °F 96% 29.86 in 1.5 mi Calm Calm - N/A   Overcast
5:08 AM 53.6 °F 53.6 °F 100% 29.86 in 0.5 mi Calm Calm - N/A Fog Fog
5:20 AM 53.6 °F 53.6 °F 100% 29.87 in 1.0 mi SSE 4.6 mph - N/A   Mist
5:46 AM 53.6 °F 53.6 °F 100% 29.88 in 0.5 mi South 5.8 mph - N/A Fog Fog
5:53 AM 54.0 °F 53.1 °F 97% 29.87 in 0.2 mi SSE 5.8 mph - N/A Fog Fog
6:53 AM 54.0 °F 53.1 °F 97% 29.91 in 0.2 mi Calm Calm - N/A Fog Fog
7:53 AM 55.0 °F 53.1 °F 93% 29.90 in 0.2 mi NNE 3.5 mph - N/A Fog Fog
8:19 AM 55.4 °F 53.6 °F 94% 29.92 in 0.2 mi North 4.6 mph - N/A Fog Fog
8:27 AM 55.4 °F 53.6 °F 94% 29.92 in 0.2 mi North 4.6 mph - N/A Fog Fog
8:39 AM 55.4 °F 53.6 °F 94% 29.92 in 0.8 mi North 3.5 mph - N/A   Mist
8:44 AM 55.4 °F 53.6 °F 94% 29.93 in 2.0 mi North 4.6 mph - N/A   Overcast
8:53 AM 55.0 °F 53.1 °F 93% 29.93 in 7.0 mi North 5.8 mph - N/A   Overcast
9:10 AM 53.6 °F 51.8 °F 94% 29.94 in 5.0 mi North 12.7 mph - 0.00 in Rain , Thunderstorm Light Rain
9:23 AM 53.6 °F 51.8 °F 94% 29.98 in 2.0 mi WNW 12.7 mph - 0.07 in Rain , Thunderstorm Heavy Thunderstorms and Rain
9:27 AM 53.6 °F 51.8 °F 94% 29.99 in 1.2 mi NW 11.5 mph - 0.12 in Rain , Thunderstorm Heavy Thunderstorms and Rain
9:45 AM 53.6 °F 51.8 °F 94% 29.97 in 2.0 mi North 5.8 mph - 0.23 in Rain , Thunderstorm Rain
9:53 AM 53.1 °F 51.1 °F 93% 29.96 in 3.0 mi North 5.8 mph - 0.25 in Rain Rain
10:53 AM 53.1 °F 51.1 °F 93% 29.98 in 8.0 mi North 6.9 mph - 0.05 in Rain Light Rain
11:53 AM 55.9 °F 52.0 °F 87% 29.94 in 10.0 mi ENE 11.5 mph - 0.01 in   Mostly Cloudy
12:53 PM 57.9 °F 52.0 °F 81% 29.95 in 10.0 mi ESE 5.8 mph - N/A   Scattered Clouds
1:53 PM 60.1 °F 50.0 °F 69% 29.93 in 10.0 mi Calm Calm - N/A   Clear
2:53 PM 61.0 °F 48.9 °F 64% 29.94 in 10.0 mi Calm Calm - N/A   Clear
3:53 PM 62.1 °F 46.9 °F 58% 29.92 in 10.0 mi Calm Calm - N/A   Clear
4:53 PM 62.1 °F 46.9 °F 58% 29.91 in 10.0 mi Calm Calm - N/A   Partly Cloudy
5:53 PM 62.1 °F 48.9 °F 62% 29.91 in 10.0 mi Calm Calm - N/A   Partly Cloudy
6:53 PM 61.0 °F 48.9 °F 64% 29.90 in 10.0 mi SSE 8.1 mph - N/A   Clear
7:53 PM 55.9 °F 50.0 °F 80% 29.91 in 10.0 mi SW 5.8 mph - N/A   Clear
8:53 PM 55.9 °F 48.9 °F 77% 29.92 in 9.0 mi WSW 3.5 mph - N/A   Clear
9:53 PM 53.1 °F 48.0 °F 83% 29.94 in 10.0 mi Calm Calm - N/A   Clear
10:53 PM 48.0 °F 46.0 °F 93% 29.94 in 10.0 mi Calm Calm - N/A   Clear
11:53 PM 50.0 °F 46.9 °F 89% 29.94 in 10.0 mi West 4.6 mph - N/A   Clear